This is the latest recevied weather packets stored in our database for station/object W1QED. If no packets are shown the sender has not sent any weather packets the latest 10 day(s).
| Time | Temp. | Humidity | Pressure | Rain* | Wind** | Luminosity | Snow |
|---|---|---|---|---|---|---|---|
| 1777916417 | 19.44° C | 21% | 1007.8 hPa | 0 mm | - | - | - |
| 1777916116 | 19.44° C | 25% | 1007.8 hPa | 0 mm | - | - | - |
| 1777915815 | 18.89° C | 22% | 1007.8 hPa | 0 mm | - | - | - |
| 1777915514 | 18.89° C | 22% | 1007.9 hPa | 0 mm | - | - | - |
| 1777915212 | 18.89° C | 23% | 1007.9 hPa | 0 mm | - | - | - |
| 1777914914 | 18.89° C | 23% | 1007.9 hPa | 0 mm | - | - | - |
| 1777914610 | 18.89° C | 23% | 1008 hPa | 0 mm | - | - | - |
| 1777914309 | 18.89° C | 22% | 1008 hPa | 0 mm | - | - | - |
| 1777914008 | 18.33° C | 27% | 1008.1 hPa | 0 mm | - | - | - |
| 1777913710 | 18.33° C | 26% | 1008 hPa | 0 mm | - | - | - |
| 1777913407 | 18.33° C | 25% | 1008.1 hPa | 0 mm | - | - | - |
| 1777913106 | 18.33° C | 24% | 1008.1 hPa | 0 mm | - | - | - |
| 1777912805 | 18.33° C | 24% | 1008.1 hPa | 0 mm | - | - | - |
| 1777912505 | 18.33° C | 24% | 1008 hPa | 0 mm | - | - | - |
| 1777912203 | 17.78° C | 25% | 1008.1 hPa | 0 mm | - | - | - |
| 1777911962 | 18.33° C | 25% | 1008.1 hPa | 0 mm | - | - | - |
| 1777911663 | 18.33° C | 23% | 1008.3 hPa | 0 mm | - | - | - |
| 1777911359 | 17.78° C | 25% | 1008.3 hPa | 0 mm | - | - | - |
| 1777911056 | 17.78° C | 24% | 1008.3 hPa | 0 mm | - | - | - |
| 1777910753 | 17.78° C | 26% | 1008.5 hPa | 0 mm | - | - | - |
| 1777910454 | 17.78° C | 24% | 1008.6 hPa | 0 mm | - | - | - |
| 1777910152 | 17.78° C | 28% | 1008.6 hPa | 0 mm | - | - | - |
| 1777909851 | 17.22° C | 25% | 1008.7 hPa | 0 mm | - | - | - |
| 1777909565 | 17.78° C | 25% | 1008.7 hPa | 0 mm | - | - | - |
| 1777909249 | 17.78° C | 26% | 1008.9 hPa | 0 mm | - | - | - |
* Rain latest hour (hover to see other rain measurements)
** Current wind speed in m/s (hover to see current wind gust speed)